EHI
0 2 6 10 11 11 10 10 9 7 6 6 5 4 3 2 2 3 4 4 2 1 2 2 3 5 3 1 2 4 4 4 3 2 1 0 0 1 3 3 1 1 2
1 3 7 10 11 11 10 10 9 7 6 5 3 3 3 3 3 3 3 3 1 0 1 2 3 5 4 2 3 4 4 3 3 3 2 0 0 1 3 2 0 1 2
1 4 7 9 10 10 10 10 9 8 7 5 3 2 4 5 4 4 3 2 1 0 0 1 3 4 5 5 5 4 3 2 3 2 1 0 0 2 2 1 0 0 1
1 3 5 8 9 8 9 9 9 8 8 7 4 4 6 6 6 5 4 2 1 1 1 1 1 3 5 6 4 3 2 2 1 1 0 0 0 1 1 1 1 1 1
1 1 4 7 9 8 8 9 9 8 8 8 6 6 6 6 5 4 4 3 2 2 1 0 1 3 3 3 2 2 3 3 1 0 0 0 0 0 0 1 2 2 2
0 0 3 7 9 8 7 8 8 6 5 6 6 6 6 5 5 4 4 4 4 3 1 0 1 2 2 1 0 2 4 4 1 0 0 0 0 0 1 2 3 3 3
1 1 3 6 8 7 7 7 6 4 3 4 5 5 5 5 5 5 5 5 6 4 2 1 1 2 2 2 1 2 4 4 1 0 0 0 0 0 2 3 4 3 3
2 2 3 6 7 6 7 7 6 4 3 3 5 6 5 5 5 5 5 6 6 5 3 2 2 2 3 3 2 3 4 4 1 0 0 0 0 0 2 3 4 3 2
1 2 4 5 4 4 6 6 6 5 4 4 5 7 6 5 4 5 7 7 6 5 4 3 3 3 3 4 4 4 4 4 2 0 0 0 0 1 2 3 4 3 3
0 1 2 2 1 1 3 4 5 4 3 3 5 7 7 4 3 4 7 7 5 4 5 5 5 5 4 4 5 4 4 4 2 0 0 0 1 2 4 4 4 3 3
0 0 1 1 0 0 0 2 3 2 1 1 2 4 4 2 1 2 4 5 5 5 6 7 7 8 7 5 4 3 3 3 2 0 1 1 2 3 5 5 5 4 3
0 0 0 0 0 0 0 1 1 1 0 0 0 1 1 0 0 0 1 3 4 4 5 5 6 7 6 4 3 3 3 3 2 1 2 4 4 3 5 5 4 3 3
0 0 0 0 0 0 0 1 0 0 0 0 0 0 0 0 0 0 0 1 1 1 1 2 2 2 2 2 1 1 2 3 3 2 4 6 6 5 4 4 3 2 3
0 0 0 0 0 0 0 0 0 0 0 1 1 1 1 0 0 0 0 0 0 0 0 0 0 0 0 0 0 0 1 2 2 2 3 6 6 5 5 4 3 3 3
0 0 0 0 0 0 0 0 0 0 0 1 2 2 2 1 0 0 0 0 0 0 0 0 0 0 0 0 0 0 0 1 1 1 2 4 5 6 6 5 4 3 3
1 1 0 0 0 0 0 0 0 0 0 1 2 2 2 1 0 0 0 0 0 0 0 0 0 0 0 0 0 0 0 0 0 0 0 1 4 6 6 5 5 4 4
2 1 1 1 0 0 0 0 0 0 0 0 1 1 2 1 0 0 0 0 0 0 0 0 0 0 0 0 0 0 0 0 0 0 0 0 1 3 5 7 6 5 5
2 2 2 2 1 1 1 0 0 0 0 0 0 1 2 2 0 1 1 1 0 0 0 0 0 0 0 0 0 0 0 0 0 0 0 0 0 1 3 6 8 7 6
4 4 4 3 2 2 2 2 2 2 1 1 1 1 2 1 1 1 2 1 0 0 0 1 1 1 0 0 0 0 0 0 0 0 0 0 0 0 1 3 6 6 7
6 6 6 5 4 3 3 3 4 5 4 2 1 1 2 3 2 2 3 2 0 1 1 2 2 1 0 0 0 0 0 0 0 0 0 0 0 0 0 1 2 4 5
7 7 7 7 5 4 2 3 4 6 5 2 1 2 3 4 3 3 3 2 2 2 3 3 2 1 0 0 0 0 0 0 0 0 0 1 0 0 0 0 0 1 2
10 9 8 8 6 4 3 4 5 6 5 3 2 3 2 2 2 3 4 3 3 3 3 3 3 1 0 0 0 0 0 0 0 0 0 0 0 1 1 1 0 0 1
13 12 10 10 9 7 7 7 7 7 6 4 4 3 1 0 1 2 4 4 4 4 3 3 3 3 1 0 0 0 0 0 0 0 0 0 0 1 1 1 0 0 0
16 13 11 12 13 11 11 11 11 9 7 6 5 3 1 1 1 2 4 4 4 5 4 3 4 4 2 0 0 0 0 0 0 0 0 0 0 0 0 0 0 0 0
17 15 13 15 15 13 12 13 12 11 8 6 5 4 3 2 3 3 4 4 4 4 3 3 3 3 1 0 0 0 0 0 0 0 0 0 0 0 0 0 0 0 0
19 18 17 17 16 14 13 13 12 11 9 6 4 4 3 3 3 4 5 4 4 3 3 3 2 1 0 0 0 0 0 0 0 0 0 0 0 0 0 0 0 0 0
Wind_Speed
2 3 8 9 9 9 10 10 10 10 10 10 10 11 11 11 11 11 11 11 11 10 11 11 12 13 14 15 16 16 16 16 16 16 15 14 13 13 13 13 12 9 13
5 4 8 8 9 9 10 10 10 10 10 10 10 10 11 11 11 12 11 11 11 10 11 12 12 13 14 15 15 16 16 15 15 15 14 12 12 12 12 12 11 7 12
5 4 6 8 9 9 10 10 10 10 10 10 10 10 11 12 12 12 11 11 10 11 11 12 12 14 15 15 14 15 15 14 14 14 12 6 7 11 12 12 12 11 11
6 4 6 9 9 10 10 10 10 10 10 9 9 10 11 11 11 11 11 10 10 11 12 12 12 13 14 14 14 14 14 13 13 12 6 5 5 10 11 11 11 11 11
4 4 6 10 10 10 10 10 10 9 9 9 9 10 10 10 10 10 10 10 10 11 12 12 11 13 14 14 13 12 12 12 11 9 5 4 4 9 10 11 11 10 10
4 3 6 12 11 11 10 10 10 9 9 10 9 9 10 10 10 10 10 11 10 11 11 11 11 13 13 12 12 11 10 10 9 5 5 4 4 8 10 10 10 10 10
4 3 5 11 11 10 10 9 9 9 9 9 9 8 8 10 10 10 10 11 11 11 11 10 11 12 12 11 10 10 9 9 7 5 4 4 5 8 9 10 10 10 9
5 4 5 11 11 9 9 9 8 8 8 8 7 7 8 9 10 10 10 11 11 11 11 11 11 11 11 10 9 9 8 8 8 6 4 4 7 9 10 10 9 9 9
5 5 4 5 6 8 8 8 8 7 7 7 7 7 7 8 10 10 10 11 11 11 11 11 11 11 10 9 9 9 8 8 5 4 6 4 8 9 10 10 9 9 9
5 4 4 3 3 3 3 6 7 7 6 6 6 7 7 7 9 10 9 11 11 11 11 11 10 10 9 9 8 8 8 7 5 5 3 5 9 10 10 10 10 10 9
5 3 3 3 3 2 2 4 5 6 5 4 4 5 5 3 3 5 8 10 11 11 10 10 10 9 9 8 7 7 5 3 4 3 3 7 9 10 10 10 10 10 9
4 3 3 4 3 2 2 2 2 2 2 1 1 2 2 2 2 4 6 9 10 10 10 9 9 8 6 3 5 5 2 4 4 3 4 9 9 9 9 8 9 9 9
4 4 3 3 3 2 2 2 1 1 1 1 2 2 2 2 2 2 2 4 4 6 4 5 4 3 3 3 2 3 3 3 3 3 4 9 9 9 8 8 8 9 9
5 4 4 3 3 2 2 2 2 1 1 1 2 2 2 2 2 2 2 3 3 2 3 3 2 3 3 3 4 4 4 3 2 2 3 8 8 8 8 9 9 9 9
5 4 4 4 3 3 3 2 2 2 1 1 2 2 3 2 2 2 2 3 3 3 3 4 3 3 3 3 3 4 4 4 3 3 2 7 7 7 7 9 9 9 9
5 4 3 4 3 3 3 2 2 1 1 1 1 2 3 3 3 3 3 3 3 3 3 4 4 4 3 3 4 4 4 3 3 3 2 3 5 6 6 8 9 9 9
5 5 4 4 4 3 2 2 2 1 2 2 2 2 3 3 3 3 3 3 3 3 4 4 4 3 3 3 3 3 3 3 3 3 2 1 2 4 5 6 7 8 8
6 5 4 5 4 3 2 2 1 2 2 2 2 2 3 4 4 3 3 3 3 3 3 3 3 3 3 3 2 2 2 2 2 2 2 1 1 1 3 5 5 6 7
6 6 5 5 4 3 2 2 2 2 2 2 2 2 3 3 4 4 3 3 3 3 3 3 3 3 3 3 2 2 1 2 2 2 2 2 2 2 1 3 4 4 5
6 6 6 5 4 3 2 2 2 3 2 2 2 3 3 3 4 4 3 3 4 3 3 3 3 3 3 3 3 2 1 1 1 1 2 1 1 2 1 1 1 2 3
6 6 5 5 3 3 2 2 2 2 1 2 2 3 3 3 4 4 4 3 3 3 3 3 3 4 2 3 3 2 2 1 1 0 0 1 0 1 1 1 1 1 1
7 6 5 5 4 3 2 2 2 2 2 2 2 3 3 3 3 4 4 3 3 3 3 3 3 3 2 2 3 2 1 2 2 1 1 1 0 1 1 2 2 1 1
8 7 6 5 4 3 3 3 3 3 3 2 2 2 2 2 3 3 3 3 3 3 2 2 3 4 2 1 2 3 3 2 1 2 1 1 1 1 0 1 2 1 1
9 7 6 5 5 4 4 4 4 4 3 2 2 2 2 2 2 3 3 3 2 2 2 2 2 3 3 2 0 1 2 4 3 0 2 1 1 1 1 1 1 1 1
9 8 6 6 5 4 4 5 5 4 3 2 2 3 2 2 2 3 3 3 2 1 2 2 2 2 2 2 1 1 1 1 2 3 1 1 2 1 1 1 1 1 1
9 8 7 7 5 5 4 4 5 5 5 4 3 3 2 1 1 2 3 2 2 2 2 2 2 2 1 2 1 1 2 2 2 2 2 1 0 1 1 1 1 1 1
Wind_Direction
145 154 132 121 116 113 112 111 110 110 110 110 111 113 116 121 127 128 125 124 126 128 130 128 128 129 133 137 137 136 135 135 134 132 130 129 128 128 126 123 122 121 122
155 158 135 126 121 117 117 116 114 113 113 113 114 116 120 122 124 125 125 125 128 129 131 129 129 130 128 130 132 132 134 135 134 132 131 130 129 129 130 128 127 125 125
145 152 140 132 127 124 124 122 120 118 116 116 117 118 122 124 124 125 125 126 129 129 133 134 133 133 132 131 131 132 135 136 136 133 130 126 131 132 132 131 131 129 129
148 153 143 137 134 130 127 125 123 121 120 122 122 122 125 127 127 128 130 131 132 133 136 137 139 141 138 136 136 136 137 138 140 137 130 131 138 137 137 137 135 135 136
138 148 145 141 137 133 131 128 125 124 123 125 128 129 131 132 132 134 135 134 134 134 136 136 141 145 140 139 141 140 141 142 139 135 129 129 130 141 143 142 141 142 143
122 140 144 142 139 137 135 132 129 128 126 127 131 135 137 137 135 136 137 137 138 137 138 136 135 142 141 142 144 144 145 146 141 131 132 135 137 149 150 148 149 150 150
131 138 139 138 137 136 136 136 135 133 129 129 131 132 138 141 140 139 139 140 140 139 138 136 134 138 141 142 142 143 143 148 136 132 138 142 151 157 156 154 153 155 153
127 124 135 137 135 136 137 138 139 136 133 133 135 136 143 145 146 145 144 145 146 146 147 147 145 144 145 145 145 146 144 145 141 142 141 150 163 165 161 159 158 160 159
114 115 128 138 138 140 145 146 148 145 144 142 143 145 150 150 150 151 151 153 155 155 155 154 152 150 150 149 148 151 151 150 139 147 158 162 169 167 164 165 165 165 165
105 113 123 128 131 140 148 153 156 155 154 153 157 159 160 159 156 158 157 159 161 161 160 158 156 156 158 157 154 155 154 151 140 150 158 168 167 168 171 173 172 171 170
104 108 119 126 133 143 151 154 156 160 160 153 160 160 160 155 157 161 165 166 167 167 163 160 161 161 162 160 157 151 145 137 142 156 165 172 171 174 178 178 175 173 174
119 121 116 124 140 138 132 121 134 143 139 131 141 141 138 143 157 154 161 167 170 169 165 162 162 165 160 148 151 148 132 136 143 157 168 170 175 176 176 176 178 180 181
132 123 113 122 130 130 118 128 126 118 130 135 132 144 142 135 140 142 145 154 160 160 156 154 148 148 142 140 144 139 139 140 145 156 165 170 178 183 184 183 183 187 187
118 121 116 117 108 109 113 112 115 116 126 126 130 144 141 137 142 152 155 152 146 147 146 143 141 142 133 141 148 143 139 138 143 149 162 173 183 190 192 188 188 189 187
123 126 124 111 106 99 97 109 114 128 140 145 125 130 130 134 145 154 151 146 145 146 149 148 148 137 133 136 143 142 138 137 141 151 170 183 185 189 193 192 191 191 186
132 133 126 110 112 107 95 95 109 128 136 126 118 122 126 130 131 136 135 133 140 143 143 140 139 134 129 122 126 132 136 138 144 146 162 187 187 190 195 194 191 190 188
143 140 130 122 109 101 92 87 93 115 124 117 110 108 113 119 121 122 121 123 135 133 127 124 123 118 115 110 116 125 132 147 149 145 147 168 206 201 191 194 195 195 194
143 138 139 126 111 100 92 83 68 87 103 110 105 98 99 104 115 114 114 121 130 126 123 126 128 121 116 114 118 132 133 142 147 152 147 169 210 214 205 201 200 197 200
145 139 131 126 125 115 97 80 73 78 91 103 99 94 95 98 105 112 114 120 120 118 120 138 135 139 135 130 130 125 128 146 164 168 169 191 207 210 211 213 203 192 205
143 138 133 131 131 123 102 78 66 64 70 83 93 97 100 97 99 103 108 113 115 119 119 120 129 127 138 142 127 109 116 161 166 163 193 197 202 200 190 209 214 195 192
141 137 139 136 138 125 106 102 95 87 83 81 92 99 99 102 102 102 108 109 114 121 130 130 125 116 116 120 103 70 35 44 78 127 132 119 122 175 148 148 145 142 172
151 147 145 148 152 152 143 139 130 129 120 112 87 79 83 96 101 109 109 119 120 119 118 126 125 119 140 149 130 111 49 10 6 22 34 75 39 43 127 142 122 139 162
159 160 157 158 157 160 146 114 98 82 71 69 69 76 71 91 97 104 112 117 113 124 138 142 141 138 148 176 147 141 144 188 317 351 359 42 29 62 124 109 124 140 153
169 166 160 162 161 159 143 132 129 129 127 139 132 114 86 87 101 106 111 111 108 122 137 160 150 150 146 164 193 154 160 156 148 159 338 350 9 44 63 105 99 100 112
169 166 163 159 160 158 146 144 138 130 136 127 115 108 101 86 91 106 111 109 115 128 135 125 121 129 145 156 166 150 110 110 134 150 197 317 3 1 55 114 125 117 122
168 164 162 159 162 158 148 142 143 141 139 129 125 127 126 106 95 102 116 121 128 133 128 132 124 121 130 140 152 148 151 156 170 155 168 182 241 327 9 38 112 126 125